Weather History for New Bedford, MA

Change the Weather History Date:

Wednesday, September 4, 2013

  Actual Average Record
Temperature  
Mean Temperature 69 °F -  
Max Temperature 80 °F 77 °F 94 °F (1973)
Min Temperature 59 °F 61 °F 51 °F (1987)
Cooling Degree Days 4    
Growing Degree Days 19 (Base 50)    
Moisture  
Dew Point 59 °F    
Average Humidity 73    
Maximum Humidity 93    
Minimum Humidity 47    
Precipitation  
Precipitation 0.00 in - - ()
Sea Level Pressure  
Sea Level Pressure 29.88 in    
Wind  
Wind Speed 6 mph (West)    
Max Wind Speed 14 mph    
Max Gust Speed -    
Visibility 10 miles    
Events      
Averages and records for this station are not official NWS values.
T = Trace of Precipitation, MM = Missing Value Source: NWS Daily Summary

Daily Weather History Graph

Daily Weather History Graph

Search for Another Location

Airport:

Trip Planner

Search our weather history database for the weather conditions in past years. The results will help you decide how hot, cold, wet, or windy it might be!

Date:

Astronomy

Sep. 04, 2013 Rise Set
Actual Time 6:13 AM EDT 7:11 PM EDT
Civil Twilight 5:44 AM EDT 7:40 PM EDT
Nautical Twilight 5:10 AM EDT 8:13 PM EDT
Astronomical Twilight 4:35 AM EDT 8:48 PM EDT
Moon 5:22 AM EDT (9/4) 6:29 PM EDT (9/4)
Length of Visible Light 13h 55m
Length of Day
12h 58m
Waning Crescent, 1% of the Moon is Illuminated
Sep 4
Waning Crescent
Sep 5
New
Sep 12
First Quarter
Sep 19
Full
Sep 26
Last Quarter

Hourly Weather History & Observations

Time (EDT) Temp. Dew Point Humidity Pressure Visibility Wind Dir Wind Speed Gust Speed Precip Events Conditions
12:53 AM 63.0 °F 61.0 °F 93% 29.82 in 10.0 mi West 3.5 mph - N/A   Clear
1:53 AM 62.1 °F 59.0 °F 90% 29.82 in 10.0 mi Calm Calm - N/A   Clear
2:53 AM 61.0 °F 57.9 °F 90% 29.82 in 10.0 mi West 3.5 mph - N/A   Clear
3:53 AM 61.0 °F 57.0 °F 87% 29.83 in 10.0 mi WNW 6.9 mph - N/A   Clear
4:53 AM 61.0 °F 57.0 °F 87% 29.84 in 10.0 mi West 8.1 mph - N/A   Clear
5:53 AM 59.0 °F 57.0 °F 93% 29.86 in 10.0 mi West 3.5 mph - N/A   Clear
6:53 AM 60.1 °F 57.0 °F 90% 29.87 in 10.0 mi WNW 5.8 mph - N/A   Clear
7:53 AM 64.0 °F 59.0 °F 84% 29.88 in 10.0 mi WNW 6.9 mph - N/A   Clear
8:53 AM 68.0 °F 60.1 °F 76% 29.90 in 10.0 mi WNW 9.2 mph - N/A   Clear
9:53 AM 71.1 °F 60.1 °F 68% 29.91 in 10.0 mi WNW 9.2 mph - N/A   Clear
10:53 AM 73.9 °F 59.0 °F 59% 29.90 in 10.0 mi Variable 6.9 mph - N/A   Clear
11:53 AM 75.9 °F 59.0 °F 56% 29.90 in 10.0 mi WNW 6.9 mph - N/A   Clear
12:53 PM 77.0 °F 59.0 °F 54% 29.89 in 10.0 mi WSW 9.2 mph - N/A   Partly Cloudy
1:53 PM 78.1 °F 57.9 °F 50% 29.88 in 10.0 mi West 10.4 mph - N/A   Partly Cloudy
2:53 PM 79.0 °F 57.0 °F 47% 29.88 in 10.0 mi WSW 13.8 mph - N/A   Clear
3:53 PM 79.0 °F 57.0 °F 47% 29.88 in 10.0 mi WSW 11.5 mph - N/A   Clear
4:53 PM 78.1 °F 57.9 °F 50% 29.88 in 10.0 mi West 11.5 mph - N/A   Clear
5:53 PM 77.0 °F 57.9 °F 52% 29.88 in 10.0 mi WSW 8.1 mph - N/A   Clear
6:53 PM 73.0 °F 57.9 °F 59% 29.88 in 10.0 mi SW 4.6 mph - N/A   Clear
7:53 PM 64.9 °F 61.0 °F 87% 29.90 in 10.0 mi SW 3.5 mph - N/A   Clear
8:53 PM 68.0 °F 61.0 °F 78% 29.92 in 10.0 mi SW 5.8 mph - N/A   Clear
9:53 PM 66.0 °F 60.1 °F 81% 29.93 in 10.0 mi WSW 5.8 mph - N/A   Clear
10:53 PM 64.0 °F 60.1 °F 87% 29.93 in 10.0 mi SW 3.5 mph - N/A   Clear
11:53 PM 63.0 °F 60.1 °F 90% 29.94 in 10.0 mi SW 5.8 mph - N/A   Clear